#timestamp,LO_Frequency,Hit,StdDev 
1594519215.4,286046999.9,N
1594519235.2,286046998.2,N
1594519255.1,286047004.4,N
1594519256.0,286047004.4,N
1594519275.8,286046999.8,N
1594519295.6,286047000.5,N
1594519315.5,286047000.2,N
1594519335.3,286047000.3,N
1594519355.2,286047004.4,N
1594519375.9,286047001.5,N
1594519395.7,286047002.8,N
1594519415.6,286047002.3,N
1594519435.4,286046998.1,N
1594519455.2,286047000.8,N
1594519475.1,286046999.9,N
1594519476.0,286046999.9,N
1594519495.8,286047000.3,N
1594519515.7,286047000.6,N
1594519535.5,286047001.7,N
1594519555.3,286047002.3,N
1594519575.2,286046999.7,N
1594519595.0,286047004.3,N
1594519595.9,286047004.3,N
1594519615.8,286047003.6,N
1594519635.6,286047005.8,N
1594519655.4,286047003.2,N
1594519675.3,286047004.5,N
1594519695.1,286047001.7,N
1594519715.9,286047001.7,N
1594519735.7,286046999.7,N
1594519755.5,286046998.2,N
1594519775.4,286046999.0,N
1594519795.2,286046997.8,N
1594519815.0,286046997.1,N
1594519815.9,286046997.1,N
1594519835.8,286046996.7,N
1594519855.6,286046999.6,N
1594519875.5,286046999.2,N
1594519895.3,286046999.5,N
1594519915.1,286046995.7,N
1594519935.9,286046995.3,N
1594519955.7,286046995.4,N
1594519975.6,286046995.1,N
1594519995.4,286046995.8,N
1594520015.2,286046993.6,N
1594520035.1,286046996.4,N
1594520036.0,286046996.4,N
1594520055.8,286046993.4,N
1594520075.6,286046994.8,N
1594520095.5,286046992.2,N
1594520115.3,286046996.4,N
1594520135.2,286046993.3,N
1594520155.9,286046994.0,N
1594520175.7,286046994.7,N
1594520195.6,286046994.0,N
1594520215.4,286046992.4,N
1594520235.3,286046990.9,Y
1594520255.1,286046993.8,P
1594520256.0,286046993.8,P
1594520275.8,286046995.7,P
1594520295.7,286046994.0,Y
1594520315.5,286046998.4,P
1594520335.4,286046998.7,N
1594520355.2,286046999.2,N
1594520375.0,286046997.5,N
1594520375.9,286046997.5,N
1594520395.8,286046998.7,N
1594520415.6,286047000.4,N
1594520435.5,286047000.5,N
1594520455.3,286047001.7,N
1594520475.1,286047001.5,N
1594520495.9,286047001.8,N
1594520515.7,286047003.4,N
1594520535.6,286047004.9,N
1594520555.4,286047004.6,N
1594520575.2,286047004.7,N
1594520595.1,286047003.2,N
1594520596.0,286047003.2,N
1594520615.8,286047004.0,N
1594520635.6,286047000.6,N
1594520655.5,286046999.6,N
1594520675.3,286046999.8,N
1594520695.2,286047002.4,N
1594520715.1,286047002.1,N
1594520716.0,286047002.1,N
1594520735.8,286047004.3,N
1594520755.7,286047002.8,N
1594520775.5,286047003.7,N
1594520795.3,286047004.6,N
1594520815.2,286047007.2,N
1594520835.0,286047004.9,N
1594520835.9,286047004.9,N
1594520855.8,286047005.2,N
1594520875.6,286047006.2,N
1594520895.5,286047007.5,Y
1594520915.3,286047003.7,P
1594520935.1,286047003.3,P
1594520955.9,286047001.7,P
1594520975.7,286047005.9,Y
1594520995.6,286046999.8,P
1594521015.4,286047000.1,N
1594521035.2,286047002.6,N
1594521055.1,286046998.3,N
1594521056.0,286046998.3,N
1594521075.8,286047000.9,N
1594521095.7,286047000.2,N
1594521115.7,286047000.9,N
1594521135.5,286047000.7,N
1594521155.4,286047000.1,N
1594521175.2,286047000.0,N
1594521195.0,286047002.0,N
1594521195.9,286047002.0,N
1594521215.8,286047001.4,N
1594521235.6,286047004.0,Y
1594521255.5,286047001.9,P
1594521275.3,286047003.3,P
1594521295.1,286047004.0,P
1594521315.9,286047005.5,Y
1594521335.7,286046999.6,P
1594521355.6,286046999.9,N
1594521375.9,286046999.9,N
1594521395.7,286047000.3,N
1594521415.6,286047003.3,Y
1594521435.4,286047004.1,P
1594521455.3,286047002.3,N
1594521475.1,286047000.1,N
1594521476.0,286047000.1,N
1594521495.8,286047001.8,N
1594521515.7,286047003.3,N
1594521535.5,286047001.7,N
1594521555.3,286047002.6,N
1594521575.2,286047000.6,N
1594521595.0,286046999.9,N
1594521595.9,286046999.9,N
1594521615.8,286046999.7,N
1594521635.6,286046999.4,N
1594521655.4,286047000.3,N
1594521675.3,286046998.5,N
1594521695.1,286046999.8,N
1594521715.9,286046998.6,N
1594521735.7,286047002.8,N
1594521755.5,286046999.7,N
1594521775.4,286047000.2,N
1594521795.2,286047000.0,N
1594521815.1,286047000.7,N
1594521816.0,286047000.7,N
1594521835.8,286047000.9,N
1594521855.7,286046999.7,N
1594521875.5,286047001.3,N
1594521895.3,286047003.3,N
1594521915.2,286047001.7,N
1594521935.0,286047004.4,Y
1594521935.9,286047004.4,P
1594521955.8,286047000.7,N
1594521975.6,286046998.3,N
1594521995.4,286047000.4,N
1594522015.3,286047001.0,N
1594522035.1,286047005.8,Y
1594522055.9,286047003.9,P
1594522075.7,286047003.5,N
1594522095.5,286047004.0,P
1594522115.4,286047003.9,Y
1594522135.2,286047001.2,P
1594522155.0,286046997.9,N
1594522155.9,286046997.9,N
1594522175.8,286046996.9,N
1594522195.6,286046998.1,N
1594522215.5,286046996.6,N
1594522235.3,286046999.2,N
1594522255.1,286046996.9,N
1594522275.9,286046994.1,N
1594522295.7,286046995.8,N
1594522315.6,286046995.7,N
1594522335.4,286046996.7,N
1594522355.2,286046999.5,N
1594522375.1,286046996.6,N
1594522376.0,286046996.6,N
1594522395.8,286046999.0,N
1594522415.7,286046998.8,N
1594522435.5,286046997.7,N
1594522455.3,286046998.6,N
1594522475.2,286046998.9,N
1594522495.9,286046999.5,N
1594522515.7,286046998.7,N
1594522535.6,286046996.5,N
1594522555.4,286046998.4,N
1594522575.3,286046999.5,N
1594522595.1,286046997.8,N
1594522596.0,286046997.8,N
1594522615.8,286046996.7,N
1594522635.7,286046993.3,Y
1594522655.5,286046997.3,P
1594522675.4,286047000.3,N
1594522695.2,286047001.5,N
1594522715.0,286047003.8,N
1594522715.9,286047003.8,N
1594522735.8,286047003.1,N
1594522755.6,286047001.5,N
1594522775.5,286047002.0,N
1594522795.3,286047000.2,N
